Location: Archamps
(46.1365°N, 6.1329°E)
Time: 12:14:19
(UTC+00:00)

Cosmos 2322 Rocket - Pass Details

Date: 28 January 2023
Orbit: 831 x 851 km, 71.0° (Epoch: 25 March)

Event Time Altitude Azimuth Distance (km) Brightness Sun altitude
Rises 18:02:03 0° 166° (SSE) 3,363 5.3 -15.3°
Reaches altitude 10° 18:04:55 10° 152° (SSE) 2,433 4.4 -15.8°
Enters shadow 18:09:03 23° 104° (ESE) 1,687 3.2 -16.5°
